Tracking 28790 objects as of 19-Apr-2024
HD Live streaming from Space Station
objects crossing your sky now

BREEZE-M DEB (TANK)

Track BREEZE-M DEB (TANK) now!


NORAD ID: 38869
Int'l Code: 2012-057C
Perigee: 526.2 km
Apogee: 35,267.7 km
Inclination: 45.6 °
Period: 627.1 minutes
Semi major axis: 24267 km
RCS: 0.003 m2 (small)
Launch date: October 14, 2012
Source: Commonwealth of Independent States (former USSR) (CIS)
Launch site: TYURATAM MISSILE AND SPACE COMPLEX (TTMTR)

Note: This is SATELLITE DEBRIS
Your satellite tracking list
Your tracking list is empty




NASA's NSSDC Master Catalog

Two Line Element Set (TLE):
1 38869U 12057C   24110.44672395  .00000071  00000-0  88013-3 0  9998
2 38869  45.5871  75.1872 7157913 104.5497 338.4247  2.29643187 95567
Source of the keplerian elements: AFSPC